Location: Marcé
(47.5801°N, 0.3280°W)
Time: 18:45:12
(UTC+01:00)

Tiros 1 - Pass Details

Date: 02 December 2021
Orbit: 629 x 664 km, 48.4° (Epoch: 26 January)

Event Time Altitude Azimuth Distance (km) Brightness Sun altitude
Rises 02:58:33 0° 283° (WNW) 2,972 - -53.8°
Reaches altitude 10° 03:01:30 10° 265° (W) 2,064 - -53.4°
Maximum altitude 03:04:43 18° 222° (SW) 1,590 - -52.9°
Drops below altitude 10° 03:07:57 10° 179° (S) 2,067 - -52.4°
Sets 03:10:55 0° 161° (SSE) 2,979 - -52.0°
